This is the latest recevied weather packets stored in our database for station/object W8RSN-13. If no packets are shown the sender has not sent any weather packets the latest 10 day(s).
| Time | Temp. | Humidity | Pressure | Rain* | Wind** | Luminosity | Snow |
|---|---|---|---|---|---|---|---|
| 1788554671 | 27.78° C | 44% | 1014.7 hPa | - | - | - | - |
| 1788554370 | 27.78° C | 44% | 1014.7 hPa | - | - | - | - |
| 1788554070 | 27.78° C | 44% | 1014.9 hPa | - | - | - | - |
| 1788553769 | 27.78° C | 45% | 1014.7 hPa | - | - | - | - |
| 1788553468 | 27.22° C | 46% | 1014.7 hPa | - | - | - | - |
| 1788553167 | 27.22° C | 47% | 1014.9 hPa | - | - | - | - |
| 1788552866 | 26.67° C | 48% | 1015 hPa | - | - | - | - |
| 1788552565 | 26.67° C | 48% | 1014.9 hPa | - | - | - | - |
| 1788552264 | 26.11° C | 49% | 1014.9 hPa | - | - | - | - |
| 1788551963 | 26.11° C | 49% | 1014.8 hPa | - | - | - | - |
| 1788551662 | 26.11° C | 50% | 1015.1 hPa | - | - | - | - |
| 1788551362 | 26.67° C | 49% | 1015 hPa | - | - | - | - |
| 1788551061 | 26.11° C | 49% | 1015.2 hPa | - | - | - | - |
| 1788550760 | 26.11° C | 50% | 1015.4 hPa | - | - | - | - |
| 1788550459 | 26.11° C | 51% | 1015.4 hPa | - | - | - | - |
| 1788550158 | 25.56° C | 53% | 1015.3 hPa | - | - | - | - |
| 1788549857 | 25.56° C | 53% | 1015.5 hPa | - | - | - | - |
| 1788549556 | 25.56° C | 52% | 1015.4 hPa | - | - | - | - |
| 1788549276 | 25° C | 54% | 1015.5 hPa | - | - | - | - |
| 1788548974 | 25.56° C | 53% | 1015.7 hPa | - | - | - | - |
| 1788548674 | 25.56° C | 53% | 1015.9 hPa | - | - | - | - |
| 1788548373 | 25° C | 53% | 1015.8 hPa | - | - | - | - |
| 1788548072 | 25° C | 53% | 1015.8 hPa | - | - | - | - |
| 1788547771 | 24.44° C | 54% | 1015.9 hPa | - | - | - | - |
| 1788547470 | 24.44° C | 54% | 1015.9 hPa | - | - | - | - |
* Rain since midnight (hover to see other rain measurements)
** Current wind speed in m/s (hover to see current wind gust speed)